Retour au catalogue

STARLINK-32412

ActifCommunicationsVLEO
NORAD 61680·PAYLOAD·🇺🇸 United States

Lancé Oct 26, 2024 depuis Cape Canaveral Space Force Station

Loading…

Prochains Passages (prochaines 24 heures)

TLE

FraisSource: CelesTrak SupGP

Époque: Sep 15, 2026, 02:32 UTC

1 61680C 24193V   26258.10604167  .00020625  00000+0  66308-3 0  2586
2 61680  53.1580 290.0086 0001144  92.2189 270.0858 15.31699380    17

Suivez STARLINK-32412 en temps réel avec AllMySat

Download on the App Store